| time (UTC) | temp C | wind direction | speed KPH | gust KPH | rain 1hr cm | rain 24hr cm | rain mn cm | humidity % | barometer mb |
| 20260509190248 | 27 | 270 | 0.0 | 0.0 | 0.00 | 0.00 | 0.00 | 95 | |
| 20260509180247 | 27 | 225 | 0.0 | 24.1 | 0.00 | 0.00 | 0.00 | 95 | |
| 20260509173243 | 26 | 315 | 0.0 | 24.1 | 0.00 | 0.00 | 0.00 | 95 | |
| 20260509170241 | 26 | 225 | 11.3 | 24.1 | 0.00 | 0.00 | 0.00 | 95 | |
| 20260509163238 | 27 | 315 | 0.0 | 24.1 | 0.00 | 0.00 | 0.00 | 95 | |
| 20260509162238 | 26 | 315 | 0.0 | 37.0 | 0.00 | 0.00 | 0.00 | 95 | |
| 20260509161237 | 26 | 315 | 0.0 | 49.9 | 0.00 | 0.00 | 0.00 | 95 | |
| 20260509160237 | 27 | 0 | 24.1 | 37.0 | 0.00 | 0.00 | 0.00 | 95 | |
| 20260509155235 | 27 | 315 | 24.1 | 37.0 | 0.00 | 0.00 | 0.69 | 95 | |
| 20260509154235 | 27 | 315 | 0.0 | 24.1 | 0.00 | 0.00 | 0.69 | 95 | |
| 20260509150231 | 27 | 225 | 11.3 | 24.1 | 0.00 | 0.00 | 0.69 | 95 | |
| 20260509145231 | 27 | 225 | 0.0 | 24.1 | 0.00 | 0.00 | 0.69 | 95 | |
| 20260509144230 | 27 | 315 | 0.0 | 24.1 | 0.00 | 0.00 | 0.69 | 95 | |
| 20260509143229 | 27 | 315 | 0.0 | 37.0 | 0.00 | 0.00 | 0.69 | 95 | |
| 20260509142229 | 27 | 315 | 0.0 | 24.1 | 0.00 | 0.00 | 0.69 | 95 | |
| 20260509141228 | 28 | 315 | 11.3 | 37.0 | 0.00 | 0.00 | 0.69 | 95 | |
| 20260509140228 | 28 | 315 | 0.0 | 24.1 | 0.00 | 0.00 | 0.69 | 95 | |
| 20260509135227 | 28 | 90 | 0.0 | 24.1 | 0.00 | 0.00 | 0.69 | 95 | |
| 20260509134226 | 28 | 315 | 0.0 | 24.1 | 0.00 | 0.00 | 0.69 | 95 | |
| 20260509133225 | 27 | 180 | 0.0 | 11.3 | 0.00 | 0.00 | 0.69 | 95 | |
| 20260509130223 | 28 | 0 | 11.3 | 49.9 | 0.00 | 0.00 | 0.69 | 95 | |
| 20260509124222 | 28 | 315 | 0.0 | 24.1 | 0.00 | 0.00 | 0.69 | 85 | |
| 20260509123224 | 28 | 315 | 0.0 | 0.0 | 0.00 | 0.00 | 0.69 | 95 | |
| 20260509121219 | 27 | 315 | 11.3 | 49.9 | 0.00 | 0.00 | 0.69 | 95 | |
| 20260509120219 | 27 | 225 | 24.1 | 49.9 | 0.00 | 0.00 | 0.69 | 95 | |
| 20260509114217 | 27 | 225 | 0.0 | 88.5 | 0.00 | 0.00 | 0.69 | 95 | |
| 20260509113216 | 27 | 225 | 37.0 | 62.8 | 0.00 | 0.00 | 0.69 | 95 | |
| 20260509111216 | 28 | 225 | 37.0 | 114.3 | 0.00 | 0.00 | 0.69 | 95 | |
| 20260509105214 | 30 | 225 | 0.0 | 49.9 | 0.00 | 0.00 | 0.69 | 95 | |
| 20260509103217 | 28 | 225 | 0.0 | 49.9 | 0.00 | 0.00 | 0.69 | 95 | |
| 20260509101211 | 28 | 0 | 37.0 | 202.8 | 0.00 | 0.00 | 0.69 | 95 | |
| 20260509095208 | 28 | 315 | 24.1 | 88.5 | 0.00 | 0.00 | 0.69 | 95 | |
| 20260509093207 | 30 | 0 | 24.1 | 88.5 | 0.00 | 0.00 | 0.69 | 95 | |
| 20260509092206 | 30 | 270 | 37.0 | 88.5 | 0.00 | 0.00 | 0.69 | 95 | |
| 20260509084203 | 30 | 0 | 49.9 | 152.9 | 0.00 | 0.00 | 0.69 | 95 | |
| 20260509082202 | 31 | 180 | 0.0 | 62.8 | 0.00 | 0.00 | 0.69 | 95 | |
| 20260509080201 | 31 | 315 | 11.3 | 24.1 | 0.00 | 0.00 | 0.69 | 95 | |
| 20260509074200 | 31 | 180 | 24.1 | 62.8 | 0.00 | 0.00 | 0.69 | 79 | |
| 20260509072157 | 31 | 225 | 11.3 | 75.6 | 0.00 | 0.00 | 0.69 | 28 | |
| 20260509071156 | 32 | 180 | 37.0 | 140.0 | 0.00 | 0.00 | 0.69 | 11 | |
| 20260509065155 | 33 | 315 | 37.0 | 164.2 | 0.00 | 0.00 | 0.69 | 10 | |
| 20260509064154 | 33 | 180 | 75.6 | 164.2 | 0.00 | 0.00 | 0.69 | 10 | |
| 20260509062152 | 32 | 225 | 49.9 | 140.0 | 0.00 | 0.00 | 0.69 | 10 | |
| 20260509060151 | 35 | 225 | 49.9 | 127.1 | 0.00 | 0.00 | 0.69 | 10 | |
| 20260509054149 | 33 | 180 | 49.9 | 140.0 | 0.00 | 0.00 | 0.69 | 10 | |
| 20260509052147 | 33 | 225 | 24.1 | 101.4 | 0.00 | 0.00 | 0.69 | 10 | |
| 20260509050145 | 35 | 225 | 75.6 | 140.0 | 0.00 | 0.00 | 0.69 | 10 | |
| 20260509045144 | 32 | 225 | 49.9 | 75.6 | 0.00 | 0.00 | 0.69 | 10 | |
| 20260509043142 | 32 | 225 | 49.9 | 101.4 | 0.00 | 0.00 | 0.69 | 10 | |
| 20260509040140 | 32 | 225 | 24.1 | 114.3 | 0.00 | 0.00 | 0.69 | 11 | |
| 20260509034138 | 31 | 270 | 49.9 | 101.4 | 0.00 | 0.00 | 0.69 | 46 | |
| 20260509032136 | 31 | 180 | 49.9 | 114.3 | 0.00 | 0.00 | 0.69 | 33 | |
| 20260509030134 | 31 | 90 | 37.0 | 49.9 | 0.00 | 0.00 | 0.69 | 31 | |
| 20260509023131 | 31 | 315 | 0.0 | 62.8 | 0.00 | 0.00 | 0.69 | 95 | |
| 20260509021129 | 30 | 180 | 24.1 | 75.6 | 0.00 | 0.00 | 0.69 | 95 | |
| 20260509015128 | 30 | 180 | 11.3 | 62.8 | 0.00 | 0.00 | 0.69 | 95 | |
| 20260509014127 | 30 | 315 | 24.1 | 49.9 | 0.00 | 0.00 | 0.69 | 95 | |
| 20260509012125 | 28 | 225 | 0.0 | 49.9 | 0.00 | 0.00 | 0.69 | 95 | |
| 20260509011124 | 27 | 225 | 24.1 | 49.9 | 0.00 | 0.00 | 0.69 | 95 | |
| 20260509010124 | 28 | 225 | 11.3 | 37.0 | 0.00 | 0.00 | 0.69 | 95 | |
| 20260509004122 | 27 | 225 | 0.0 | 37.0 | 0.00 | 0.00 | 0.69 | 95 | |
| 20260509001120 | 26 | 225 | 0.0 | 24.1 | 0.00 | 0.00 | 0.69 | 95 | |
| 20260508235117 | 25 | 225 | 0.0 | 0.0 | 0.00 | 0.00 | 0.69 | 95 | |
| 20260508234116 | 25 | 225 | 0.0 | 0.0 | 0.00 | 0.00 | 0.69 | 95 | |
| 20260508233116 | 25 | 315 | 0.0 | 0.0 | 0.00 | 0.00 | 0.69 | 95 | |
| 20260508231114 | 25 | 225 | 0.0 | 0.0 | 0.00 | 0.00 | 0.69 | 95 | |
| 20260508224112 | 25 | 315 | 0.0 | 0.0 | 0.00 | 0.00 | 0.69 | 95 | |
| 20260508223112 | 25 | 315 | 0.0 | 24.1 | 0.00 | 0.00 | 0.69 | 95 | |
| 20260508222111 | 25 | 315 | 24.1 | 37.0 | 0.00 | 0.00 | 0.69 | 82 | |
| 20260508221111 | 25 | 135 | 11.3 | 24.1 | 0.00 | 0.00 | 0.69 | 95 | |
| 20260508220110 | 25 | 225 | 0.0 | 0.0 | 0.00 | 0.00 | 0.69 | 95 | |
| 20260508215109 | 25 | 225 | 0.0 | 11.3 | 0.00 | 0.00 | 0.69 | 95 | |
| 20260508214109 | 25 | 225 | 0.0 | 24.1 | 0.00 | 0.00 | 0.69 | 95 | |
| 20260508213108 | 25 | 225 | 24.1 | 24.1 | 0.00 | 0.00 | 0.69 | 95 | |
| 20260508212108 | 25 | 225 | 0.0 | 0.0 | 0.00 | 0.00 | 0.69 | 95 | |
| 20260508203104 | 25 | 315 | 0.0 | 24.1 | 0.00 | 0.00 | 0.69 | 95 | |
| 20260508202103 | 25 | 315 | 0.0 | 24.1 | 0.00 | 0.00 | 0.69 | 95 | |
| 20260508201102 | 25 | 315 | 11.3 | 24.1 | 0.00 | 0.00 | 0.69 | 95 | |
| 20260508194105 | 25 | 225 | 0.0 | 24.1 | 0.00 | 0.00 | 0.69 | 95 | |
| 20260508193059 | 25 | 225 | 0.0 | 24.1 | 0.00 | 0.00 | 0.69 | 95 | |
| 20260508192059 | 25 | 225 | 0.0 | 11.3 | 0.00 | 0.00 | 0.69 | 95 | |
| 20260508191058 | 25 | 315 | 0.0 | 24.1 | 0.00 | 0.00 | 0.69 | 95 |